Cloud_Cover
49 55 100 100 100 15 5 2 1 0 3 5 6 8 32 5 50 16 100 100 100 90 100 100 100 100 100 100 100 100 100 100 100 47 4 0 0 0 0 0 0 0 0 0 0 0 2
91 93 100 100 100 97 2 6 0 4 1 5 5 6 71 17 100 100 84 100 100 78 100 100 100 100 100 100 100 100 100 100 100 100 16 4 0 0 0 0 0 0 0 0 0 0 0
11 100 78 100 100 100 44 0 5 4 0 1 5 5 5 59 100 12 97 100 100 100 100 100 100 100 100 100 100 100 100 100 100 100 66 10 0 0 0 0 0 0 0 0 0 0 0
75 83 21 75 100 100 55 0 14 0 0 0 5 5 5 5 61 91 86 100 100 100 100 100 100 100 100 100 100 100 100 100 100 100 100 100 3 0 0 0 0 0 0 0 0 0 0
86 31 33 15 34 100 95 38 10 3 2 0 4 5 5 5 5 13 100 100 100 100 94 100 100 100 100 100 100 100 100 100 100 100 100 100 94 3 0 0 0 0 0 0 0 0 0
74 4 56 31 13 32 72 6 12 14 1 0 0 5 2 5 5 5 14 92 100 100 81 87 100 100 100 100 100 100 100 100 100 99 100 100 100 41 2 0 0 0 0 0 0 0 0
92 3 0 4 40 15 79 13 9 10 5 2 0 0 0 0 0 4 5 16 100 80 84 98 91 100 100 81 100 100 100 89 100 100 100 100 100 100 5 0 0 0 0 0 0 0 0
100 70 0 1 5 1 1 0 5 7 5 0 0 0 0 0 0 0 0 36 45 96 100 100 100 100 100 100 98 100 100 99 100 100 85 100 100 100 5 5 1 0 0 0 4 1 0
100 100 11 0 2 5 0 0 4 5 5 2 0 0 0 0 0 0 3 0 1 10 37 100 100 100 100 100 100 100 100 100 100 100 24 17 26 29 5 5 5 4 2 5 2 0 0
100 100 100 65 0 5 4 2 5 5 5 12 0 0 0 0 0 0 0 0 0 5 5 10 20 79 86 100 100 100 98 100 100 98 31 4 3 0 1 1 5 5 5 5 5 0 3
100 100 100 100 31 3 5 4 5 5 16 6 1 0 0 0 0 0 0 0 0 0 39 5 5 5 53 78 84 100 100 35 42 7 5 0 0 0 0 0 0 3 4 1 3 0 2
100 78 70 99 97 17 5 5 5 5 24 65 5 5 0 0 4 0 0 0 0 76 5 0 0 3 5 6 61 26 34 5 6 4 2 0 0 1 3 0 0 0 0 0 0 0 3
100 100 64 0 0 0 2 5 18 10 75 70 99 58 14 0 0 4 0 0 86 22 0 0 1 0 0 3 5 5 4 0 3 80 72 0 0 0 1 0 0 2 0 4 2 4 0
100 100 100 0 0 0 0 5 5 9 16 71 100 98 99 14 0 2 0 7 3 3 1 0 2 0 0 0 0 0 0 0 0 0 0 8 2 1 0 1 3 0 0 4 0 0 0
100 98 96 0 0 0 0 0 0 27 5 94 98 100 100 100 1 0 3 27 34 0 0 0 0 0 0 0 0 0 0 0 0 0 0 0 4 3 2 1 0 2 1 1 4 5 4
0 1 0 0 0 0 0 0 0 27 8 5 100 78 100 100 100 1 0 2 1 0 0 0 0 0 0 0 0 0 0 0 0 0 0 0 4 4 0 0 0 4 0 25 11 7 2
3 0 0 0 0 0 0 0 0 0 89 5 57 100 98 100 100 98 28 0 0 0 3 0 0 0 0 0 0 0 0 0 0 0 2 3 3 3 4 3 2 4 3 0 2 2 5
99 2 0 0 0 0 0 0 0 0 0 20 95 100 100 99 100 100 99 0 0 0 3 1 5 0 4 0 0 0 0 2 0 0 2 0 0 4 0 0 0 4 5 4 3 5 0
100 100 9 0 0 0 0 0 0 0 0 0 14 91 99 100 100 100 100 91 0 0 0 5 5 5 5 5 5 5 5 4 1 0 0 0 0 0 0 0 1 4 5 5 5 2 1
76 100 100 25 0 0 0 0 0 0 0 0 0 28 11 46 89 100 100 100 82 1 4 17 5 5 60 21 6 5 5 56 70 36 12 5 2 0 0 2 4 3 3 4 5 5 0
47 32 50 72 97 3 0 0 0 1 1 2 1 2 5 5 96 73 100 100 87 94 4 6 2 51 8 14 78 8 13 76 50 66 97 100 100 100 97 76 40 11 2 5 2 1 5
47 23 6 84 77 6 28 0 0 2 5 5 11 68 5 5 6 96 100 100 100 81 78 11 58 0 90 29 13 97 17 6 24 5 84 80 84 100 100 96 69 25 81 62 53 19 10
92 95 18 5 5 35 100 7 5 5 5 5 5 15 63 68 10 38 68 100 100 100 83 100 17 9 4 100 18 4 5 84 59 38 49 34 37 94 100 100 100 100 100 100 98 92 90
100 98 100 90 66 15 99 100 30 5 5 4 5 54 44 77 62 30 85 93 100 100 98 100 100 100 100 8 39 98 100 99 100 100 100 100 86 38 68 71 76 100 85 59 12 67 72
100 100 100 100 100 100 100 100 100 41 5 5 5 26 28 93 100 100 80 100 100 100 100 100 100 100 100 100 62 100 100 100 100 100 100 100 100 100 100 26 67 70 71 48 5 52 19
100 100 100 100 100 100 100 100 100 100 97 11 9 65 73 100 100 100 100 100 100 100 100 100 100 100 100 100 6 28 100 100 100 94 100 100 100 100 100 100 100 100 100 8 9 78 100
96 100 100 100 100 100 100 100 100 100 100 100 100 40 78 100 100 100 100 100 100 100 100 100 100 100 59 6 31 5 40 100 100 100 100 100 100 100 94 100 100 100 90 94 53 100 100
100 100 99 100 100 100 100 100 100 100 100 100 100 100 97 92 100 100 100 100 100 80 88 100 100 100 93 10 7 5 5 72 100 100 100 100 100 100 34 24 100 100 96 99 91 99 97
100 100 100 7 100 100 100 100 100 100 100 100 100 100 100 100 100 99 94 99 89 63 97 70 44 5 6 36 52 75 74 100 100 100 100 100 100 94 100 100 100 80 79 100 100 100 90